Regional Weather Roundup
Issued by NWS Bismarck, ND

Home | Current Version | Previous Version | Text Only | Print | Product List | Glossary On
Versions: 1 2 3 4 5 6 7 8 9 10 11 12 13 14 15 16 17 18 19 20 21 22 23 24 25 26 27 28 29 30 31 32 33 34 35 36 37 38 39 40 41 42 43 44 45 46 47 48 49 50
000
ASUS43 KBIS 222059
RWRBIS

NWR BROADCAST TEXT
NATIONAL WEATHER SERVICE BISMARCK ND
400 PM CDT MON SEP 22 2014

NOTE: "FAIR" INDICATES FEW OR NO CLOUDS BELOW 12,000 FEET WITH NO
SIGNIFICANT WEATHER AND/OR OBSTRUCTIONS TO VISIBILITY.


CITY           SKY/WX    TMP DP  RH WIND       PRES   REMARKS
WILLISTON      SUNNY     84  42  22 SE15G21   29.89F
MINOT          SUNNY     81  45  28 SE13      29.95F
MINOT AFB      NOT AVBL
BISMARCK       SUNNY     83  46  27 S20G28    29.98F
DICKINSON      NOT AVBL
GARRISON         N/A     80  49  33 S12       29.96F
HETTINGER ARPT MOSUNNY   75  47  36 SE18G25   29.95F
JAMESTOWN      NOT AVBL
CARRINGTON     FAIR      77  43  29 MISG      30.04F
CROSBY         FAIR      82  45  26 SE13      29.91F
HARVEY         FAIR      81  41  24 S15G21    30.00F
HAZEN          FAIR      81  48  32 S17G25    29.95F
LINTON         FAIR      81  48  32 SE17G25   30.00F
OAKES            N/A     77  45  31 S10       30.08F
RUGBY          FAIR      79  43  27 S12G18    29.99F
WATFORD CITY   FAIR      81  48  32 SE14      29.90F
$$

CITY           SKY/WX    TMP DP  RH WIND       PRES   REMARKS
GRAND FORKS    SUNNY     77  46  33 S13       30.04F
GRAND FORKS AF NOT AVBL
DEVILS LAKE    SUNNY     79  41  25 S9        30.01F
FARGO          SUNNY     77  46  33 S12       30.08F
CAVALIER       FAIR      77  46  33 SW8       30.02F
GRAFTON        FAIR      77  45  31 SW9G16    30.03F
GWINNER        CLEAR     77  46  33 S12       30.10F
LANGDON        FAIR      77  41  27 S12G17    30.03F
ROLLA            N/A     77  39  25 SW10G18   30.02F
$$

CITY           SKY/WX    TMP DP  RH WIND       PRES   REMARKS
ABERDEEN       SUNNY     75  47  36 S14       30.08F
MOBRIDGE       MOSUNNY   81  51  35 S16       29.97F
RAPID CITY     PTSUNNY   76  48  37 S18       29.94F
GLASGOW        SUNNY     79  48  33 SE9       29.86F
SIDNEY         SUNNY     84  48  28 SE13      29.89S
WOLF POINT     SUNNY     85  47  26 SE10G16   29.85F
GLENDIVE       MOSUNNY   82  50  32 S14       29.89F
MILES CITY     MOSUNNY   78  47  33 VRB3      29.87F
BAKER          PTSUNNY   80  49  33 SE14      29.92F
$$

CITY           SKY/WX    TMP DP  RH WIND       PRES   REMARKS
BILLINGS       PTSUNNY   80  48  32 SW8       29.92F
GREAT FALLS    MOSUNNY   84  46  26 SW10      29.89F
$$



USA.gov is the U.S. government's official web portal to all federal, state and local government web resources and services.